Location: Hodgeman County Ambulance
(38.0844°N, 99.8949°W)
Time: 14:35:51
(UTC+00:00)

Cosmos 1140 Rocket - Pass Details

Date: 27 October 2020
Orbit: 744 x 767 km, 74.1° (Epoch: 03 December)

Event Time Altitude Azimuth Distance (km) Brightness Sun altitude
Rises 12:05:38 0° 187° (S) 3,176 6.7 -11.5°
Reaches altitude 10° 12:08:01 10° 183° (S) 2,254 6.0 -11.0°
Maximum altitude 12:13:01 59° 105° (ESE) 855 4.1 -10.0°
Drops below altitude 10° 12:18:03 10° 26° (NNE) 2,264 6.2 -9.0°
Sets 12:20:26 0° 23° (NNE) 3,191 6.9 -8.6°
